Location: Newark
(32.9900°N, 111.5400°W)
Time: 18:49:15
(UTC+00:00)

N. Korean satellite - Pass Details

Date: 25 November 2019
Orbit: 455 x 507 km, 97.2° (Epoch: 14 December)

Event Time Altitude Azimuth Distance (km) Brightness Sun altitude
Rises 01:33:00 0° 207° (SSW) 2,561 10.9 -15.1°
Reaches altitude 10° 01:35:52 10° 233° (SW) 1,695 10.4 -15.7°
Maximum altitude 01:37:52 14° 266° (W) 1,463 10.1 -16.1°
Drops below altitude 10° 01:39:53 10° 300° (WNW) 1,712 10.0 -16.5°
Sets 01:42:50 0° 326° (NW) 2,608 10.5 -17.1°
